STARLINK-31630, 59271

Orbit data source: Space-Track

STARLINK-31630, 59271 is a payload satellite owned by SpaceX/Seattle (US) in LEO that was launched on Tue, 19 Mar 2024 UTC via an FALCON 9 launch vehicle from the Air Force Western Test Range (AFWTR). Payload-class satellites include a variety of spacecraft equipped with specific instruments for various scientific and technological missions. These include communications satellites like Starlink; space stations such as the ISS; scientific satellites like the Hubble; Earth observation satellites from companies like Planet Labs, Umbra, and HawkEye 360; GPS; miniature CubeSats for education and research; and military/defense satellites.

Loading next visibility...
Identifier
59271, 2024-050T
Orbit
LEO
Country
Flag of USUS
Related business
Manufacturer
SpaceX/Seattle
Mission
Operational Commercial Communications
Bus & Motor
STARLINK V2M, Unknown motor
Mass
730 kg wet, ~700 kg dry
Launch date (UTC)
2024-03-19 (2 years ago)
Launch vehicle
FALCON 9
Launch site
Air Force Western Test Range (AFWTR)
Object type
Payload
Rocket body
Debris
Shape & HBR
Box + 2 Pan, 17.7 m
Radar Cross Section
33.884 m², Large (>1 m²)

Expand to show TLE details & history
Last TLE update: 2 days ago

TLE from 2 days ago
0 STARLINK-31630
1 59271U 24050T   26171.36372214  .00001140  00000-0  44895-4 0  9990
2 59271  53.1619  50.2128 0001380  97.3639 262.7521 15.34393305126468
Epoch: 2026-06-20T08:43Z
TLE epoch observation values (Epoch: 2026-06-20T08:43:45.592Z)
Latitude
-0°
Longitude
10.69342°
Altitude
463.744 km
Speed
7.636 km/s
True Right ascension
03h 20m 51s
True Declination
0° 00' 00"
Sunlit
Object was in daylight at epoch
Visualization orbit readout
Latitude
Unknown
Longitude
Unknown
Altitude
Unknown
Speed
Unknown
Apparent Right ascension
Unknown
Apparent Declination
Unknown
Sunlit
N/A
Visualization observer readout
Local Sidereal Time
21:24:12
Azimuth
Unknown
Elevation
Unknown
Doppler factor
Unknown
Orbital elements
Apogee altitude
463.924 km
Perigee altitude
462.036 km
Semi-major axis
6,841.117 km
Eccentricity
0.00014
Inclination
53.1619°
RAAN
50.2128°
Arg. of periapsis
97.3639°
True anomaly
262.73641°
Mean anomaly
262.7521°
Eccentric anomaly
262.74426°
Mean motion
3.83577 °/min
Orbital period
93.85 mins
BSTAR
0.000044895
Loading maneuver chart data...
Computing Atmospheric mass density...
Loading historical data...
Loading historical data...
Loading historical data...
Loading historical data...
Loading historical data...
Loading historical data...
Loading historical data...

Documentation

Showing up to 5 results
|